Tracking 30995 objects as of 7-Jul-2025
HD Live streaming from Space Station
objects crossing your sky now

BREEZE-M DEB (TANK)

Track BREEZE-M DEB (TANK) now!
10-day predictions


NORAD ID: 28188
Int'l Code: 2004-008B
Perigee: 285.3 km
Apogee: 13,429.5 km
Inclination: 49.5 °
Period: 252.4 minutes
Semi major axis: 13228 km
RCS: 7.345 m2 (large)
Launch date: March 15, 2004
Source: Commonwealth of Independent States (former USSR) (CIS)
Launch site: TYURATAM MISSILE AND SPACE COMPLEX (TTMTR)

Note: This is SATELLITE DEBRIS
Your satellite tracking list
PEHUENSAT 1
Track 1 satellite(s)




NASA's NSSDC Master Catalog

Two Line Element Set (TLE):
1 28188U 04008B   25187.71224720  .00003190  00000-0  34995-3 0  9993
2 28188  49.5384  27.4812 4968196 298.0378  20.7172  5.70615882414837
Source of the keplerian elements: AFSPC